Dati Storici

Data ora Umidita' aria (%) Temperatura aria (°C) Rad globale (W/m²) Gonioanemometro (°) Tacoanemometro (m/s) Pioggia (mm)
05-06-2020 21:30 80.4 % 20.227 -81.687 2.178 0 0
05-06-2020 21:20 81.9 % 20.094 -77.538 2.268 0 0
05-06-2020 21:10 81.7 % 20.176 -77.807 1.878 0 0
05-06-2020 21:00 82.3 % 20.189 -81.08 2.886 0 0
05-06-2020 20:50 85.5 % 20.107 -76.958 1.3 0 0
05-06-2020 20:40 83.1 % 20.125 -74.112 2.329 0 0
05-06-2020 20:30 80.1 % 20.208 -76.335 1.383 0 0
05-06-2020 20:20 78.5 % 20.213 -74.707 1.723 0 0
05-06-2020 20:10 78.2 % 20.204 -73.923 2.104 0 0
05-06-2020 20:00 80.3 % 20.151 -74.331 1.237 0 0
05-06-2020 19:50 81.9 % 20.32 -77.693 1.705 0 0
05-06-2020 19:40 79.6 % 20.512 -76.736 1.756 0 0
05-06-2020 19:30 77.4 % 21.014 -73.265 0.502 0 0
05-06-2020 19:20 75.4 % 21.085 -71.238 2.369 0 0
05-06-2020 19:10 73.5 % 21.106 -69.82 1.656 0 0
05-06-2020 19:00 71.8 % 21.182 -76.112 1.687 0 0
05-06-2020 18:50 72 % 21.69 -74.645 1.067 0 0
05-06-2020 18:40 74.6 % 21.408 -78.017 1.1 0 0
05-06-2020 18:30 74.1 % 21.331 -75.241 2.866 0 0
05-06-2020 18:20 73.5 % 21.262 -77.337 3.008 0 0

I dati sono presentati in modo automatico a scopo informativo. In seguito a verifica i dati possono subire modifiche o essere invalidati e non riportati negli archivi definitivi.